Location: Unspecified
(38.9820°N, 94.4650°W)
Time: 16:43:26
(UTC-05:00)

CZ-3 Stage 3 - Visible Passes

Search period start: 29 June 2016 00:00
Search period end: 09 July 2016 00:00
Orbit: 446 x 34757 km, 30.4° (Epoch: 28 June)

Date Brightness Start Highest point End Pass type
(mag) Time Alt. Az. Time Alt. Az. Time Alt. Az.
29 Jun 4.0 00:18:13 10° W 00:59:49 55° SSW 01:01:24 49° SSE visible
29 Jun 6.2 13:40:21 10° SSE 21:10:48 54° SSE 21:29:11 10° E visible
02 Jul 4.0 00:09:07 10° W 00:51:21 55° SSW 00:52:53 50° SSE visible
02 Jul 6.2 13:28:04 10° SSE 21:02:23 56° SSE 21:20:47 10° E visible
05 Jul 4.0 00:00:01 10° W 00:42:53 55° SSW 00:44:24 50° SSE visible
07 Jul 4.0 23:50:53 10° W 00:34:23 55° SSW 00:35:55 50° SSE visible
